Погода в Герле

Румыния     47°01′36″N   23°54′20″E
темп.,
°C
ветер,
м/с
пор.,
м/с
влажн.,
%
обл.,
%
осадки,
мм/ч
давл.,
гПа
погр.,
м
11 апреля, вс
вс1100:00+5в11685 0.0 102410
03:00+4всв11755 0.0 102410
06:00+3в118146 0.0 102510
09:00+6вюв126880 0.0 1025178
12:00+12юв45510 0.0 1024811
15:00+15ююв45432 0.0 10221394
18:00+15юв4548100 0.0 10211309
21:00+10юв22577 0.0 102211
12 апреля, пн
пн1200:00+8вюв216299 0.0 102311
03:00+6в117165 0.0 102410
06:00+5в117373 0.0 102310
09:00+8вюв236546 0.0 1023294
12:00+14юв335310 0.0 1021744
15:00+17юв22475 0.0 10191015
18:00+17юв114776 0.0 10181147
21:00+12в1164100 0.0 101810
13 апреля, вт
вт1300:00+11вюв1168100 0.0 101810
03:00+9в117511 0.0 101810
06:00+8вюв118257 0.0 101810
09:00+11вюв1270100 0.0 1017190
12:00+17юв3551100 0.0 1015832
15:00+18ююв2347100 0.0 10141082
18:00+14сз7977100 0.1 1013467
21:00+10зсз4989100 0.1 1014369
14 апреля, ср
ср1400:00+9сз2694100 2.1 1013277
03:00+9зсз2596100 4.4 1012278
06:00+8зсз4796100 1.2 1011402
09:00+4зсз71395100 4.3 1012418
12:00+2зсз71396100 3.9 1013463
15:00+1зсз611100100 8.9 1014445
18:00+1зсз510100100 2.5 1015462
21:000зсз5998100 2.9 1016548
15 апреля, чт
чт1500:000зсз4798100 0.3 1016568
03:000зсз379997 0.6 1016380
06:000зсз2798100 0.4 1017418
09:00+1зсз3692100 0.5 1017619
12:00+2сз4687100 0.1 1018722
15:00+4сз688399 0.1 1017853
18:00+4сз6984100 0.0 1017702
21:00+2сз41095100 0.1 1018579